Terminal Aerodrome Forecast
Issued by NWS Austin/San Antonio, TX

Home | Current Version | Previous Version | Text Only | Print | Product List | Glossary On
Versions: 1 2 3 4 5 6 7 8 9 10 11
691
FTUS44 KEWX 091130
TAFDRT
TAF
KDRT 091130Z 0912/1012 32005KT P6SM SKC
     FM092100 VRB03KT P6SM SKC
     FM100100 10004KT P6SM SKC=

USA.gov is the U.S. government's official web portal to all federal, state and local government web resources and services.